Regional Weather Roundup
Issued by NWS

Home | Current Version | Previous Version | Graphics & Text | Print | Product List | Glossary On
Versions: 1 2 3 4 5 6 7 8 9 10 11 12 13 14 15 16 17 18 19 20 21 22 23 24 25 26 27 28 29 30 31 32 33 34 35 36 37 38 39 40 41 42 43 44 45 46 47 48 49 50
440
ASUS43 KFSD 241302
RWRSD

WEATHER ROUNDUP FOR SOUTH DAKOTA
NATIONAL WEATHER SERVICE SIOUX FALLS SD
800 AM CDT FRI MAR 24 2017

NOTE: "FAIR" INDICATES FEW OR NO CLOUDS BELOW 12,000 FEET WITH NO
SIGNIFICANT WEATHER AND/OR OBSTRUCTIONS TO VISIBILITY.


SDZ001>005-009-010-012>017-241400-
NORTHWEST AND NORTH CENTRAL SOUTH DAKOTA

CITY           SKY/WX    TMP DP  RH WIND       PRES   REMARKS
BUFFALO          N/A     37  34  89 W6        29.99R
FAITH            N/A     38  37  97 W9        30.04R
MOBRIDGE       CLOUDY    34  29  82 VRB3      30.04R
$$

SDZ012>016-024>037-041>051-057-063-072>074-241400-
SOUTHWEST AND SOUTH CENTRAL SOUTH DAKOTA

CITY           SKY/WX    TMP DP  RH WIND       PRES   REMARKS
RAPID CTY ARPT CLOUDY    41  37  86 NW6       30.05R
PIERRE         CLOUDY    37  34  89 N8        30.02R
CUSTER         CLOUDY    34  30  85 CALM      30.04S
ELLSWORTH AFB  CLOUDY    42  40  93 NW5       30.05R
PHILIP         PTCLDY    34  33  96 W7        30.04R WCI  28
PINE RIDGE     CLOUDY    38  37  97 N5        30.06R
SPEARFISH      FAIR      36  34  93 W6        30.07R
WINNER         CLOUDY    42  37  82 N15       29.99R
$$

SDZ004>011-016>023-039-040-241400-
NORTHEAST SOUTH DAKOTA

CITY           SKY/WX    TMP DP  RH WIND       PRES   REMARKS
ABERDEEN       CLOUDY    34  31  88 N12       30.05R WCI  25
WATERTOWN      CLOUDY    35  33  92 N14       29.96R WCI  26
BROOKINGS      CLOUDY    35  33  92 N14       29.94R WCI  26
SISSETON         N/A     34  34 100 N13       30.02R WCI  25
$$

SDZ017-020-022-023-036>040-048>070-241400-
SOUTHEAST SOUTH DAKOTA

CITY           SKY/WX    TMP DP  RH WIND       PRES   REMARKS
SIOUX FALLS    CLOUDY    38  36  92 N16       29.90R
HURON          NOT AVBL
CHAMBERLAIN    CLOUDY    40  38  89 NW18      30.00R
MITCHELL       CLOUDY    38  36  92 N18       29.96R
YANKTON        CLOUDY    39  36  87 N9        29.94R
$$

ABBREVIATIONS USED IN REMARKS
   TC - TEMPERATURE IN CELSIUS
  WCI - WIND CHILL INDEX
   HX - HEAT INDEX
  VSB - VISIBILITY





USA.gov is the U.S. government's official web portal to all federal, state and local government web resources and services.